Santa Maria, CA

3:20 PM PDT on September 27, 2016 (GMT -0700)
Santa Maria Public Airport / Captain G. Allan Hancock Field

Weather History for KSMX - March, 2013

Change the Weather History Date:

Thursday, March 14, 2013

  Actual Average Record
Temperature  
Mean Temperature 56 °F 54 °F  
Max Temperature 69 °F 65 °F 95 °F (2015)
Min Temperature 43 °F 43 °F 28 °F (1977)
Degree Days  
Heating Degree Days 9 11  
Month to date heating degree days 136 154  
Since 1 July heating degree days 1853 1987  
Cooling Degree Days 0 0  
Month to date cooling degree days 0 0  
Year to date cooling degree days 0 1  
Growing Degree Days 6 (Base 50)    
Moisture  
Dew Point 48 °F    
Average Humidity 77    
Maximum Humidity 100    
Minimum Humidity 53    
Precipitation  
Precipitation 0.00 in 0.10 in 0.68 in (1910)
Month to date precipitation 0.66 1.39  
Year to date precipitation 2.31 7.13  
Since 1 July precipitation 6.04  
Sea Level Pressure  
Sea Level Pressure 30.10 in    
Wind  
Wind Speed 4 mph (WNW)    
Max Wind Speed 13 mph    
Max Gust Speed 16 mph    
Visibility 4 miles    
Events Fog    
T = Trace of Precipitation, MM = Missing Value Source: NWS Daily Summary

Daily Weather History Graph

Daily Weather History Graph

Search for Another Location

Airport or City:

Trip Planner

Search our weather history database for the weather conditions in past years. The results will help you decide how hot, cold, wet, or windy it might be!

Date:

Astronomy

Mar. 14, 2013 Rise Set
Actual Time 7:13 AM PDT 7:08 PM PDT
Civil Twilight 6:48 AM PDT 7:34 PM PDT
Nautical Twilight 6:18 AM PDT 8:03 PM PDT
Astronomical Twilight 5:49 AM PDT 8:33 PM PDT
Moon 8:38 AM PDT (3/14) 10:20 PM PDT (3/14)
Length of Visible Light 12h 46m
Length of Day
11h 55m
Waxing Crescent, 9% of the Moon is Illuminated
Mar 14
Waxing Crescent
Mar 19
First Quarter
Mar 27
Full
Apr 2
Last Quarter
Apr 10
New

Hourly Weather History & Observations

Time (PDT) Temp. Windchill Dew Point Humidity Pressure Visibility Wind Dir Wind Speed Gust Speed Precip Events Conditions
12:51 AM 48.9 °F - 48.0 °F 97% 30.12 in 0.2 mi Calm Calm - N/A Fog Fog
1:47 AM 48.2 °F - 46.4 °F 93% 30.10 in 1.0 mi Calm Calm - N/A   Mist
1:49 AM 48.2 °F - 46.4 °F 93% 30.10 in 1.8 mi Calm Calm - N/A   Scattered Clouds
1:51 AM 48.0 °F - 46.9 °F 96% 30.11 in 2.5 mi Calm Calm - N/A   Scattered Clouds
1:59 AM 48.2 °F - 46.4 °F 93% 30.10 in 3.0 mi Calm Calm - N/A   Partly Cloudy
2:51 AM 44.1 °F 39.5 °F 43.0 °F 96% 30.11 in 3.0 mi WNW 8.1 mph - N/A   Clear
2:58 AM 44.6 °F 40.7 °F 42.8 °F 93% 30.10 in 2.5 mi NW 6.9 mph - N/A   Partly Cloudy
3:02 AM 44.6 °F 40.7 °F 44.6 °F 100% 30.10 in 1.2 mi West 6.9 mph - N/A   Scattered Clouds
3:04 AM 44.6 °F 40.2 °F 44.6 °F 100% 30.10 in 0.8 mi WNW 8.1 mph - N/A   Mist
3:12 AM 46.4 °F 42.9 °F 46.4 °F 100% 30.10 in 0.2 mi WNW 6.9 mph - N/A Fog Fog
3:51 AM 46.9 °F - 46.0 °F 97% 30.10 in 0.2 mi South 4.6 mph - N/A Fog Fog
4:51 AM 44.1 °F 41.5 °F 43.0 °F 96% 30.08 in 0.5 mi NW 4.6 mph - N/A Fog Fog
5:51 AM 46.9 °F - 46.9 °F 100% 30.11 in 0.2 mi NNW 3.5 mph - N/A Fog Fog
6:51 AM 46.9 °F - 46.0 °F 97% 30.10 in 0.2 mi Calm Calm - N/A Fog Fog
7:51 AM 46.0 °F - 45.0 °F 96% 30.11 in 0.5 mi Calm Calm - N/A Fog Fog
8:32 AM 46.4 °F - 46.4 °F 100% 30.09 in 5.0 mi Calm Calm - N/A   Scattered Clouds
8:51 AM 48.0 °F - 46.9 °F 96% 30.11 in 7.0 mi Calm Calm - N/A   Scattered Clouds
9:51 AM 53.1 °F - 48.9 °F 86% 30.13 in 6.0 mi West 5.8 mph - N/A   Scattered Clouds
10:51 AM 57.0 °F - 50.0 °F 77% 30.15 in 10.0 mi NW 10.4 mph - N/A   Scattered Clouds
11:51 AM 57.9 °F - 50.0 °F 75% 30.16 in 10.0 mi NNW 6.9 mph - N/A   Mostly Cloudy
12:51 PM 62.1 °F - 51.1 °F 67% 30.15 in 10.0 mi Calm Calm - 0.01 in   Mostly Cloudy
1:51 PM 68.0 °F - 50.0 °F 52% 30.13 in 10.0 mi NNW 8.1 mph - N/A   Mostly Cloudy
2:51 PM 64.9 °F - 50.0 °F 58% 30.12 in 10.0 mi Calm Calm - N/A   Mostly Cloudy
3:51 PM 61.0 °F - 51.1 °F 70% 30.12 in 10.0 mi WNW 12.7 mph - N/A   Clear
4:51 PM 55.9 °F - 50.0 °F 80% 30.12 in 10.0 mi NW 4.6 mph - N/A   Mostly Cloudy
5:51 PM 57.0 °F - 50.0 °F 77% 30.10 in 10.0 mi WNW 8.1 mph - 0.01 in   Clear
6:51 PM 52.0 °F - 48.9 °F 89% 30.10 in 7.0 mi WNW 8.1 mph - N/A   Mostly Cloudy
7:12 PM 50.0 °F - 48.2 °F 94% 30.09 in 6.0 mi NW 5.8 mph - N/A   Mostly Cloudy
7:51 PM 50.0 °F - 48.9 °F 96% 30.10 in 4.0 mi Calm Calm - N/A   Overcast
7:59 PM 50.0 °F - 48.2 °F 94% 30.09 in 1.8 mi Calm Calm - N/A   Overcast
8:04 PM 50.0 °F - 48.2 °F 94% 30.09 in 0.8 mi Calm Calm - N/A   Overcast
8:17 PM 50.0 °F - 48.2 °F 94% 30.09 in 0.2 mi West 3.5 mph - N/A Fog Fog
8:34 PM 50.0 °F - 48.2 °F 94% 30.09 in 0.2 mi Calm Calm - N/A Fog Fog
8:51 PM 50.0 °F - 48.9 °F 96% 30.10 in 0.2 mi Calm Calm - N/A Fog Fog
9:01 PM 50.0 °F - 48.2 °F 94% 30.08 in 0.2 mi Calm Calm - N/A Fog Fog
9:26 PM 50.0 °F - 48.2 °F 94% 30.07 in 1.0 mi SE 5.8 mph - N/A   Mist
9:28 PM 50.0 °F - 48.2 °F 94% 30.06 in 2.0 mi SE 5.8 mph - N/A   Overcast
9:36 PM 50.0 °F - 48.2 °F 94% 30.06 in 4.0 mi East 3.5 mph - N/A   Mostly Cloudy
9:51 PM 50.0 °F - 48.9 °F 96% 30.08 in 4.0 mi Calm Calm - N/A   Scattered Clouds
10:51 PM 46.0 °F 43.9 °F 46.0 °F 100% 30.09 in 3.0 mi WNW 4.6 mph - N/A   Clear
10:59 PM 48.2 °F - 46.4 °F 93% 30.08 in 2.0 mi West 5.8 mph - N/A   Scattered Clouds
11:01 PM 46.4 °F 44.3 °F 46.4 °F 100% 30.08 in 0.8 mi West 4.6 mph - N/A   Mist
11:11 PM 48.2 °F - 48.2 °F 100% 30.08 in 0.2 mi Calm Calm - N/A Fog Fog
11:51 PM 48.9 °F - 48.9 °F 100% 30.09 in 0.2 mi Calm Calm - N/A Fog Fog